Location: Newark
(25.0000°N, 73.5000°E)
Time: 15:05:46
(UTC+00:00)

deb Explorer IX - Visible Passes

Search period start: 26 February 2021 00:00
Search period end: 08 March 2021 00:00
Orbit: 537 x 1102 km, 38.8° (Epoch: 25 February)

Date Brightness Start Highest point End Pass type
(mag) Time Alt. Az. Time Alt. Az. Time Alt. Az.
26 Feb ? 00:03:28 20° NNW 00:03:37 20° NNW 00:07:02 10° NE visible
26 Feb ? 23:41:04 18° N 23:41:04 18° N 23:43:13 10° NNE visible
27 Feb ? 23:18:37 13° NNE 23:18:37 13° NNE 23:19:26 10° NNE visible
28 Feb ? 01:01:54 10° NNW 01:04:17 14° N 01:06:50 10° NE visible
01 Mar ? 00:38:25 10° NNW 00:40:36 13° N 00:42:54 10° NE visible
02 Mar ? 00:14:55 10° NNW 00:16:56 13° N 00:19:00 10° NNE visible
02 Mar ? 23:52:24 12° N 23:53:14 12° N 23:55:07 10° NNE visible
03 Mar ? 23:29:54 12° N 23:29:54 12° N 23:31:16 10° NNE visible
04 Mar ? 23:07:25 10° NNE 23:07:25 10° NNE 23:07:26 10° NNE visible
05 Mar ? 00:50:13 10° NNW 00:53:39 23° NNE 00:57:22 10° ENE visible
06 Mar ? 00:26:38 10° NNW 00:29:57 23° NNE 00:33:31 10° ENE visible
07 Mar ? 00:03:47 14° NNW 00:06:16 22° NNE 00:09:43 10° ENE visible
07 Mar ? 23:41:25 19° N 23:42:34 22° NNE 23:45:54 10° ENE visible
